This demonstration page uses our WeatherBlox Daily Observations layout. Learn more.

Left ArrowRight Arrow

39.12711, -84.51439

Hourly Observations for August 20, 2016

Temp ( °F °C ) Dew Point ( °F °C ) Humidity (%) Winds ( mph kmh ) Pressure ( in mb ) Visibility ( mi km ) Precip ( " mm )
12:53 am 00:53 Clear with Mist and Fog 71 21.7 71 21.7 100 100 N N/A 29.92 1013 5 8 N/A
1:53 am 01:53 Clear with Mist and Fog 70 21.1 70 21.1 100 100 NE 3 6 29.92 1013 5 8 N/A
2:53 am 02:53 Clear with Mist and Fog 70 21.1 70 21.1 100 100 N N/A 29.91 1013 4 6 N/A
3:53 am 03:53 Clear with Mist and Fog 69 20.6 69 20.6 100 100 N N/A 29.91 1013 3 5 N/A
4:49 am 04:49 Clear with Mist and Fog 68 20 68 20 100 100 N N/A 29.91 1013 3 4 N/A
4:53 am 04:53 Clear with Mist and Fog 68 20 68 20 100 100 N N/A 29.89 1012 4 6 N/A
5:37 am 05:37 Clear with Mist and Fog 68 20 68 20 100 100 N N/A 29.91 1013 2 3 N/A
5:53 am 05:53 Clear with Mist and Fog 68 20 68 20 100 100 N N/A 29.89 1012 1 2 N/A
5:57 am 05:57 Clear with Mist and Fog 68 20 68 20 100 100 N N/A 29.91 1013 3 5 N/A
6:23 am 06:23 Clear with Mist and Fog 67 19.4 67 19.4 100 100 N N/A 29.91 1013 2 3 N/A
6:32 am 06:32 Clear with Mist and Fog 69 20.6 69 20.6 100 100 N N/A 29.91 1013 3 5 N/A
6:53 am 06:53 Hazy 67 19.4 67 19.4 100 100 N N/A 29.89 1012 7 11 N/A
7:49 am 07:49 Mostly Cloudy 72 22 72 22 100 100 N N/A 29.88 1012 8 13 N/A
7:53 am 07:53 Mostly Cloudy 71 21.7 71 21.7 100 100 N N/A 29.88 1012 8 13 N/A
8:53 am 08:53 Cloudy 72 22.2 72 22.2 100 100 S 7 11 29.86 1011 9 14 N/A
9:53 am 09:53 Mostly Cloudy 74 23.3 72 22.2 94 94 S 5 7 29.85 1011 10 16 N/A
10:15 am 10:15 Partly Cloudy 76 24.4 73 22.8 91 91 SSW 5 7 29.85 1011 10 16 N/A
10:24 am 10:24 Mostly Cloudy 76 24.4 72 22.2 88 88 SSW 7 11 29.85 1011 10 16 N/A
10:53 am 10:53 Mostly Cloudy 77 25 72 22.2 85 85 S 12 19 29.83 1010 10 16 N/A
11:06 am 11:06 Mostly Cloudy 79 26 72 22 79 79 S 14 22 29.85 1011 10 16 N/A
11:53 am 11:53 Cloudy 79 26.1 71 21.7 77 77 S 14 22 29.82 1010 10 16 N/A
12:53 pm 12:53 Cloudy 78 25.6 73 22.8 85 85 SSE 12 19 29.80 1009 10 16 N/A
1:53 pm 13:53 Cloudy with Rain 76 24.4 73 22.8 91 91 S 13 20 29.79 1009 5 8 0.01 0.25
2:10 pm 14:10 Mostly Cloudy 75 24 75 24 100 100 S 10 17 29.80 1009 10 16 N/A
2:53 pm 14:53 Mostly Cloudy 79 26.1 75 23.9 88 88 S 9 15 29.77 1008 10 16 0.01 0.25
3:44 pm 15:44 Cloudy with Heavy Rain 77 25 75 24 94 94 WSW 5 7 29.77 1008 3 4 N/A
3:53 pm 15:53 Cloudy with Heavy Rain 76 24.4 75 23.9 97 97 VRB 6 9 29.75 1008 3 4 0.20 5.08
4:05 pm 16:05 Mostly Cloudy with Light Rain 78 25.6 76 24.4 93 93 S 13 20 29.77 1008 4 6 0.09 2.29
4:53 pm 16:53 Mostly Cloudy 78 25.6 75 23.9 90 90 S 10 17 29.73 1007 9 14 0.09 2.29
5:53 pm 17:53 Mostly Cloudy 78 25.6 75 23.9 90 90 S 12 19 29.72 1007 10 16 N/A
6:53 pm 18:53 Mostly Sunny 76 24.4 73 22.8 91 91 S 7 11 29.73 1007 10 16 N/A
7:17 pm 19:17 Mostly Cloudy 76 24.4 73 22.8 91 91 S 10 17 29.74 1007 10 16 N/A
7:53 pm 19:53 Mostly Cloudy 74 23.3 72 22.2 94 94 S 8 13 29.72 1007 10 16 N/A
8:53 pm 20:53 Cloudy 74 23.3 72 22.2 94 94 S 8 13 29.75 1007 10 16 N/A
9:00 pm 21:00 Mostly Cloudy with Thunderstorms 73 23 72 22 94 94 S 7 11 29.77 1008 10 16 N/A
9:53 pm 21:53 Cloudy with Thunderstorms 72 22.2 68 20 87 87 W 13 20 29.77 1008 6 10 0.03 0.76
9:58 pm 21:58 Cloudy with Strong Thunderstorms 72 22 70 21 94 94 W 12 19 29.80 1009 2 3 N/A
10:05 pm 22:05 Cloudy with Strong Thunderstorms 70 21.1 70 21.1 100 100 SW 8 13 29.80 1009 3 5 0.14 3.56
10:20 pm 22:20 Cloudy with Thunderstorms 70 21 70 21 100 100 S 6 9 29.77 1008 3 5 N/A
10:31 pm 22:31 Cloudy with Light Rain 70 21.1 70 21.1 100 100 S 5 7 29.77 1008 9 14 0.27 6.86
10:53 pm 22:53 Cloudy with Light Rain 71 21.7 70 21.1 96 96 S 7 11 29.76 1008 10 16 0.27 6.86
11:53 pm 23:53 Mostly Clear 70 21.1 70 21.1 100 100 N N/A 29.75 1008 10 16 N/A

Powered by AerisWeather